Вернуться в каталог

FENGYUN 1C DEB

АктивенSSO
NORAD 40688·DEBRIS·🇨🇳 China

Запущен May 10, 1999 с Taiyuan Satellite Launch Center

Loading…

Ближайшие Пролёты (ближайшие 24 часа)

TLE

СвежийSource: Space-Track

Эпоха: Sep 14, 2026, 04:27 UTC

1 40688U 99025EWU 26257.18590431  .00000210  00000-0  20945-3 0  9990
2 40688  99.0048  39.7908 0141643  10.3031 350.0975 13.84071904337279

Отслеживайте FENGYUN 1C DEB в реальном времени с AllMySat

Download on the App Store